Location: Hylvaty SDH
(49.9612°N, 16.4057°E)
Time: 19:30:21
(UTC+02:00)

Transit 4A - Pass Details

Date: 17 August 2020
Orbit: 862 x 982 km, 66.8° (Epoch: 28 September)

Event Time Altitude Azimuth Distance (km) Brightness Sun altitude
Rises 17:29:57 0° 321° (NW) 3,658 11.4 24.2°
Reaches altitude 10° 17:32:32 10° 318° (NW) 2,720 10.9 23.8°
Maximum altitude 17:38:44 56° 242° (WSW) 1,156 9.5 22.8°
Drops below altitude 10° 17:44:58 10° 166° (SSE) 2,728 10.3 21.8°
Sets 17:47:34 0° 162° (SSE) 3,669 10.9 21.4°
